KF5CFW Weather Reports


Display with metric or nautical units.
time (UTC)temp
F
wind
direction
speed
MPH
gust
MPH
rain 1hr
in
rain 24hr
in
rain mn
in
humidity
%
barometer
mb
20260506033037 70 352 0.0 1.0 0.00 0.00 0.00 62 1007.2
20260506031535 70 15 0.0 1.0 0.00 0.00 0.00 62 1006.8
20260506030046 71 345 0.0 1.0 0.00 0.00 0.00 62 1006.6
20260506024527 72 6 0.0 1.0 0.00 0.00 0.00 62 1006.6
20260506023016 72 4 0.0 2.0 0.00 0.00 0.00 62 1006.2
20260506021512 73 311 0.0 1.0 0.00 0.00 0.00 62 1005.8
20260506020007 74 346 0.0 1.0 0.00 0.00 0.00 62 1005.1
20260506014503 74 353 0.0 1.0 0.00 0.00 0.00 62 1004.9
20260506013100 75 359 0.0 1.0 0.00 0.00 0.00 62 1004.9
20260506011554 77 358 0.0 1.0 0.00 0.00 0.00 61 1004.3
20260506010053 78 352 0.0 1.0 0.00 0.00 0.00 60 1004.4
20260506004551 79 4 0.0 1.0 0.00 0.00 0.00 60 1003.9
20260506003045 80 5 0.0 1.0 0.00 0.00 0.00 59 1003.9
20260506001543 81 41 0.0 1.0 0.00 0.00 0.00 58 1003.7
20260506000035 82 347 0.0 1.0 0.00 0.00 0.00 57 1003.6
20260505234533 84 1 0.0 2.0 0.00 0.00 0.00 56 1003.2
20260505233027 85 356 0.0 1.0 0.00 0.00 0.00 53 1002.8
20260505231527 87 352 0.0 1.0 0.00 0.00 0.00 49 1002.7
20260505230021 89 228 0.0 1.0 0.00 0.00 0.00 49 1002.5
20260505224514 91 271 0.0 1.0 0.00 0.00 0.00 47 1002.0
20260505223009 94 288 0.0 1.0 0.00 0.00 0.00 46 1002.1
20260505221506 95 5 0.0 0.0 0.00 0.00 0.00 45 1001.9
20260505220101 96 326 0.0 1.0 0.00 0.00 0.00 46 1001.9
20260505214604 96 343 0.0 1.0 0.00 0.00 0.00 42 1001.9
20260505213051 94 268 0.0 1.0 0.00 0.00 0.00 46 1002.1
20260505211547 94 228 0.0 1.0 0.00 0.00 0.00 48 1002.3
20260505210042 94 197 0.0 1.0 0.00 0.00 0.00 49 1002.5
20260505204538 93 231 0.0 1.0 0.00 0.00 0.00 50 1002.7
20260505203039 92 236 0.0 1.0 0.00 0.00 0.00 49 1002.9
20260505201534 92 246 0.0 3.0 0.00 0.00 0.00 50 1002.9
20260505200024 92 161 0.0 3.0 0.00 0.00 0.00 53 1003.2
20260505194523 91 217 0.0 3.0 0.00 0.00 0.00 52 1003.2
20260505193016 91 200 0.0 1.0 0.00 0.00 0.00 54 1003.3
20260505191512 90 140 0.0 2.0 0.00 0.00 0.00 55 1003.2
20260505190007 89 171 0.0 2.0 0.00 0.00 0.00 56 1003.4
20260505184503 87 294 0.0 2.0 0.00 0.00 0.00 57 1003.4
20260505183058 86 194 0.0 2.0 0.00 0.00 0.00 57 1003.5
20260505181556 86 195 0.0 3.0 0.00 0.00 0.00 57 1003.7
20260505180054 85 170 0.0 1.0 0.00 0.00 0.00 57 1003.8
20260505174548 84 226 0.0 3.0 0.00 0.00 0.00 56 1003.9
20260505173044 83 158 0.0 2.0 0.00 0.00 0.00 55 1003.9
20260505171547 83 291 0.0 4.0 0.00 0.00 0.00 57 1003.8
20260505170038 84 184 0.0 2.0 0.00 0.00 0.00 56 1003.9
20260505164537 84 155 0.0 4.0 0.00 0.00 0.00 56 1004.0
20260505163031 83 214 0.0 2.0 0.00 0.00 0.00 52 1003.8
20260505161522 81 221 0.0 3.0 0.00 0.00 0.00 46 1003.7
20260505153010 78 210 0.0 3.0 0.00 0.00 0.00 40 1003.7
20260505151506 77 256 0.0 2.0 0.00 0.00 0.00 28 1003.9
20260505124546 71 183 0.0 3.0 0.00 0.00 0.00 1 1003.4
20260505123056 71 184 0.0 2.0 0.00 0.00 0.00 1 1003.1
20260505121545 70 352 0.0 1.0 0.00 0.00 0.00 1 1003.0
20260505120054 70 63 0.0 2.0 0.00 0.00 0.00 1 1002.7
20260505114540 70 156 0.0 3.0 0.00 0.00 0.00 1 1003.0
20260505113035 70 225 0.0 2.0 0.00 0.00 0.00 1 1002.7
20260505111533 70 193 0.0 1.0 0.00 0.00 0.00 1 1002.8
20260505101513 71 179 0.0 2.0 0.00 0.00 0.00 1 1002.6
20260505100010 71 235 0.0 3.0 0.00 0.00 0.00 1 1002.9
20260505094506 71 131 0.0 3.0 0.00 0.00 0.00 1 1002.9
20260505093003 71 173 0.0 1.0 0.00 0.00 0.00 1 1003.0
20260505091619 71 207 0.0 3.0 0.00 0.00 0.00 1 1003.3
20260505090118 71 158 0.0 3.0 0.00 0.00 0.00 1 1003.4
20260505084602 71 166 0.0 4.0 0.00 0.00 0.00 1 1003.4
20260505083059 71 151 0.0 3.0 0.00 0.00 0.00 1 1003.4
20260505081554 71 160 0.0 4.0 0.00 0.00 0.00 5 1003.4
20260505080052 72 165 0.0 3.0 0.00 0.00 0.00 9 1003.5
20260505074533 72 139 0.0 3.0 0.00 0.00 0.00 13 1003.6
20260505073044 72 155 0.0 2.0 0.00 0.00 0.00 17 1003.7
20260505071541 72 156 0.0 2.0 0.00 0.00 0.00 21 1004.1
20260505070036 73 164 0.0 2.0 0.00 0.00 0.00 25 1004.3
20260505064524 73 154 0.0 3.0 0.00 0.00 0.00 30 1004.5
20260505063027 73 148 0.0 4.0 0.00 0.00 0.00 35 1004.6
20260505061527 73 163 0.0 2.0 0.00 0.00 0.00 41 1004.6
20260505060033 74 145 0.0 2.0 0.00 0.00 0.00 45 1004.6
20260505054518 74 160 0.0 4.0 0.00 0.00 0.00 48 1004.3
20260505053013 74 188 0.0 2.0 0.00 0.00 0.00 51 1004.4
20260505051511 74 148 0.0 3.0 0.00 0.00 0.00 52 1004.7
20260505041508 75 141 0.0 5.0 0.00 0.00 0.00 53 1005.0
20260505040006 75 160 0.0 5.0 0.00 0.00 0.00 54 1004.7
20260505034505 75 160 0.0 1.0 0.00 0.00 0.00 54 1004.9